User: anonymous
Location: Unspecified
(0.0000°N, 0.0000°E)
Time: 04:50:09
(UTC+00:00)
Language:

Landsat 7 - Orbit

View from above orbital plane
View from above orbital plane
View from above satellite
View from above satellite

Ground track
Ground track

The orbit data is extracted from the following two-line orbital elements,

1 25682U 99020A   14231.81335033  .00000012  00000-0  12602-4 0  5310
2 25682 098.2120 300.5670 0000584 097.5045 262.6216 14.57114664816251
Epoch (UTC): 19 August 2014 19:31:13
Eccentricity: 0.0000584
inclination: 98.2120°
perigee height: 702 km
apogee height: 703 km
right ascension of ascending node: 300.5670°
argument of perigee: 97.5045°
revolutions per day: 14.57114664
mean anomaly at epoch: 262.6216°
orbit number at epoch: 81625

The dashed part of the orbit path shows where the satellite is in the earth's shadow,  

DLR